Zurück zum Katalog

DELTA 1 R/B(1)

AktivLEO
NORAD 10517·ROCKET BODY·🇺🇸 United States

Gestartet Dec 15, 1977 von Cape Canaveral Space Force Station

Loading…

Nächste Überflüge (nächste 24 Stunden)

TLE

AktuellSource: Space-Track

Epoche: Sep 14, 2026, 11:11 UTC

1 10517U 77118B   26257.46657339  .00001871  00000-0  31910-3 0  9997
2 10517  28.6636 297.8354 0811907 253.7644  97.2152 13.47846838363440

Verfolge DELTA 1 R/B(1) in Echtzeit mit AllMySat

Download on the App Store